Regional Weather Roundup
Issued by NWS

Home | Current Version | Previous Version | Graphics & Text | Print | Product List | Glossary On
Versions: 1 2 3 4 5 6 7 8 9 10 11 12 13 14 15 16 17 18 19 20 21 22 23 24 25 26 27 28 29 30 31 32 33 34 35 36 37 38 39 40 41 42 43 44 45 46 47 48 49 50
000
ASUS45 KBOU 221110
RWRCO

WEATHER ROUNDUP FOR COLORADO
NATIONAL WEATHER SERVICE DENVER/BOULDER CO
400 AM MST THU FEB 22 2018

NOTE: "FAIR" INDICATES FEW OR NO CLOUDS BELOW 12000 FEET WITH NO
SIGNIFICANT WEATHER AND/OR OBSTRUCTIONS TO VISIBILITY.

COZ001>005-013-030-031-221200-
...NORTHWEST COLORADO...

CITY           SKY/WX    TMP DP  RH WIND       PRES   REMARKS
CRAIG          CLOUDY    12   8  84 CALM      29.98F
HAYDEN         FLURRIES  13   9  84 E7        29.96F WCI   3
MEEKER         LGT SNOW  19  15  84 CALM      29.94F FOG
RANGELY        FLURRIES  18  15  89 CALM      30.00F
RABBIT EARS PA FAIR       9   5  85 S6        29.81F WCI  -1
STEAMBOAT SPGS MOCLDY     9   7  93 CALM      29.94F
WALDEN         CLOUDY     3  -4  72 SE3       29.91S
$$

COZ006>008-011-221200-
...WEST CENTRAL VALLEYS...

CITY           SKY/WX    TMP DP  RH WIND       PRES   REMARKS
GRAND JUNCTION LGT SNOW  26  26 100 E3        29.98F FOG
MONTROSE       LGT SNOW  24  23  96 CALM      29.98F FOG
EAGLE          LGT SNOW  19  13  77 E5        29.98S WCI  12
RIFLE          LGT SNOW  24  22  91 CALM      29.97F FOG
DELTA          LGT SNOW  28  26  94 CALM      29.99F
NUCLA          CLOUDY    27  25  93 CALM      29.99F
$$

COZ017>023-064>068-221200-
...SOUTHWEST COLORADO...

CITY           SKY/WX    TMP DP  RH WIND       PRES   REMARKS
DURANGO        LGT SNOW  28  28 100 W3        29.93F FOG
CORTEZ         CLOUDY    23  23 100 E5        29.96S FOG     WCI  17
PAGOSA SPRINGS LGT SNOW  27  26  98 S8        29.93F WCI  18
TELLURIDE      LGT SNOW  20  18  93 CALM      29.89F
WOLF CREEK PAS CLOUDY    10  10 100 S13G20    29.88F WCI  -5
$$

COZ009-010-012-014-032>034-037-058>063-221200-
...CENTRAL COLORADO...

CITY           SKY/WX    TMP DP  RH WIND       PRES   REMARKS
ASPEN          LGT SNOW  16  13  88 CALM      29.89F FOG
BUENA VISTA    LGT SNOW  18  15  89 CALM      29.90F
COPPER MTN     LGT SNOW  14   9  79 SE9       29.81F WCI   2
BERTHOUD PASS  CLOUDY     7  -4  61 S14       29.81S HAZE    WCI -10
COTTONWOOD PAS LGT SNOW  21  18  86 CALM      29.85F
GUNNISON       LGT SNOW  18  16  93 CALM      29.90F FOG
GRANBY         CLOUDY     4  -1  78 N5        29.92R WCI  -5
KREMMLING      CLOUDY    14   9  79 CALM      29.96S
LEADVILLE      SNOW      12  10  92 CALM      29.83F VSB 1/2
MONARCH PASS   FOG       12   9  85 SW14      29.92F VSB 1/4 WCI  -3
SALIDA         CLOUDY    18  16  90 CALM      29.99F
SUNLIGHT       LGT SNOW  10   7  85 SW6       29.88F WCI   1
WILKERSON PASS CLOUDY    14  10  85 SW8       29.85F FOG     WCI   3
$$

COZ069>075-221200-
...SAN LUIS VALLEY/SANGRE DE CRISTO MOUNTAINS...

CITY           SKY/WX    TMP DP  RH WIND       PRES   REMARKS
ALAMOSA        LGT SNOW  26  23  88 S14       29.90F FOG     WCI  14
DEL NORTE      CLOUDY    21  20  93 CALM      29.90S
LA VETA PASS   LGT SNOW  21  19  93 S15G26    29.99F WCI   8
SAGUACHE       NOT AVBL
$$

COZ035-036-038>040-221200-
...NORTHERN COLORADO FRONT RANGE...

CITY           SKY/WX    TMP DP  RH WIND       PRES   REMARKS
DENVER INTL AP CLOUDY    15   9  76 W6        30.00F WCI   6
AURORA         CLOUDY    13   9  84 S5        29.99F WCI   5
FRONT RANGE AP FAIR      17  12  78 SW5       30.01S WCI  10
ERIE MUNI ARPT FAIR       9   6  89 CALM      30.08S
BOULDER MUN AP FAIR      14  10  85 CALM      30.01S
CENTENNIAL     CLOUDY    15  11  83 CALM      29.97F
BROOMFIELD     NOT AVBL
FORT COLLINS   FAIR       7   4  87 N5        30.03F WCI  -2
LONGMONT       FAIR       8   4  83 CALM      30.05R
$$

COZ041-046-047-076>085-087-088-221200-
...PIKES PEAK/PALMER DIVIDE AND SOUTHERN FOOTHILLS...

CITY           SKY/WX    TMP DP  RH WIND       PRES   REMARKS
COLO. SPRINGS  FLURRIES  15  12  88 CALM      29.98F
A. F. ACADEMY  CLOUDY    11   9  88 NW5       29.95F WCI   3
SCHRIEVER AFB  NOT AVBL
CHEYENNE MTN   FLURRIES   9   7  92 CALM      29.89S
ELLICOTT       CLOUDY   N/A N/A N/A CALM      29.97F
FALCON         FLURRIES  13  11  92 MISG      29.95F
FORT CARSON    CLOUDY    15  12  87 S5        29.99F WCI   8
LIMON          CLOUDY    14  12  92 S7        30.03F WCI   4
MONUMENT HILL  FAIR       9   5  85 CALM      29.93F
CANON CITY     FLURRIES  18  16  93 E3        30.02R
WALSENBURG     NOT AVBL
TRINIDAD       FAIR      14  11  87 CALM      30.00F
$$

COZ042>045-048>051-090-091-221200-
...NORTHEAST COLORADO...

CITY           SKY/WX    TMP DP  RH WIND       PRES   REMARKS
GREELEY ARPT   FAIR       2  -1  88 N3        30.05F
AKRON          CLOUDY    16  12  84 S12       30.07R WCI   3
BURLINGTON     CLOUDY    13   6  74 SE8       30.15R WCI   2
WRAY           CLOUDY    19  10  68 SE7       30.16F WCI  10
YUMA           CLOUDY    18   7  62 SE7       30.11F WCI   8
STERLING       CLOUDY    23  19  86 S9        30.08F WCI  13
HOLYOKE        CLOUDY    21  10  63 SE13      30.15F WCI   9
FORT MORGAN    CLOUDY    16  13  86 E6        30.06F WCI   8
$$

COZ086-089-092>099-221200-
...SOUTHEAST COLORADO...

CITY           SKY/WX    TMP DP  RH WIND       PRES   REMARKS
PUEBLO         CLOUDY    19  14  81 SE7       30.07F WCI  10
LA JUNTA       FAIR      13  10  88 NW6       30.09F WCI   4
LAMAR          FAIR      16   4  59 E7        30.11F WCI   6
SPRINGFIELD      N/A      9   8  96 SE9       30.08F WCI  -4
$$



USA.gov is the U.S. government's official web portal to all federal, state and local government web resources and services.